Overview Statistics Trail Chart Weather Telemetry Raw packets
 

This is the latest recevied weather packets stored in our database for station/object KI5NXU. If no packets are shown the sender has not sent any weather packets the latest 10 day(s).

<< 106 107 108 109 110 111 112 >>
Time Temp. Humidity Pressure Rain* Wind** Luminosity Snow
1787592907 39.44° C 31% 1014.2 hPa 0 mm - 738 W/m² -
1787592602 38.89° C 32% 1014.1 hPa 0 mm - 739 W/m² -
1787592295 38.89° C 32% 1014.2 hPa 0 mm - 736 W/m² -
1787591992 38.89° C 31% 1014.2 hPa 0 mm - 742 W/m² -
1787591686 38.33° C 33% 1014.3 hPa 0 mm - 729 W/m² -
1787591382 38.33° C 32% 1014.3 hPa 0 mm - 738 W/m² -
1787591077 37.78° C 33% 1014.5 hPa 0 mm - 711 W/m² -
1787590773 37.78° C 35% 1014.4 hPa 0 mm - 728 W/m² -
1787590468 37.78° C 33% 1014.4 hPa 0 mm - 734 W/m² -
1787590164 37.78° C 33% 1014.7 hPa 0 mm - 757 W/m² -
1787589859 37.22° C 35% 1014.6 hPa 0 mm - 739 W/m² -
1787589555 36.67° C 35% 1014.4 hPa 0 mm - 740 W/m² -
1787589255 36.67° C 35% 1014.6 hPa 0 mm - 740 W/m² -
1787588950 36.67° C 35% 1014.5 hPa 0 mm - 697 W/m² -
1787588647 36.11° C 37% 1014.6 hPa 0 mm - 705 W/m² -
1787588341 36.11° C 36% 1014.6 hPa 0 mm - 701 W/m² -
1787588037 36.11° C 36% 1014.7 hPa 0 mm - 714 W/m² -
1787587733 35.56° C 37% 1014.8 hPa 0 mm - 691 W/m² -
1787587428 35.56° C 37% 1014.7 hPa 0 mm - 653 W/m² -
1787587127 35.56° C 36% 1014.8 hPa 0 mm - 647 W/m² -
1787586821 35.56° C 37% 1014.6 hPa 0 mm - 636 W/m² -
1787586516 35° C 40% 1014.8 hPa 0 mm - 615 W/m² -
1787586211 35° C 39% 1014.7 hPa 0 mm - 604 W/m² -
1787585909 35° C 37% 1015 hPa 0 mm - 575 W/m² -
1787585608 34.44° C 39% 1014.8 hPa 0 mm - 524 W/m² -

* Rain latest hour (hover to see other rain measurements)
** Current wind speed in m/s (hover to see current wind gust speed)